Flag for Italy Weather past 2 weeks in Catania, Italy

Now
79 °F

Passing clouds.


Feels Like: 80 °F
Forecast: 60 / 82 °F
Wind: 13 mph from East

Location: Catania / Fontanarossa

Current Time: Jul 1, 2015 at 2:13:34 PM

Latest Report: Jul 1, 2015 at 1:20 PM


Visibility: N/A

Pressure: 30.09 "Hg

Humidity: 48%

Dew point: 57 °F

Location of CataniaLocation

Historic Weather in Catania — Graph

°F

Catania temperature yesterday

Maximum temperature yesterday: 82 °F (at 9:50 AM)
Minimum temperature yesterday: 63 °F (at 3:20 AM)
Average temperature yesterday: 74 °F

Past Weeks' High & Low Weather Summary

 TemperatureHumidityPressure
High90 °F (Jun 24, 2:50 PM)88% (Jun 17, 3:20 AM)30.12 "Hg (Jun 17, 3:20 AM)
Low57 °F (Jun 19, 3:50 AM)12% (Jun 24, 12:50 PM)29.77 "Hg (Jun 18, 3:20 PM)
Average73 °F56%29.97 "Hg
* Reported Jun 16 12:20 PM — Jul 1 12:50 PM, Catania, Weather by CustomWeather, © 2015

Note: Actual official high and low records may vary slightly from our data, if they occured in-between our weather recording intervals... More about our weather records

Advertising

Catania weather history for previous 24 hours

 ConditionsComfort  
Time TempWeatherWind HumidityBarometerVisibility
12:50 PM
Wed, Jul 1
79 °FPassing clouds.12 mph45%30.12 "HgN/A
12:20 PM79 °FPassing clouds.12 mph42%30.12 "HgN/A
11:50 AM79 °FSunny.12 mph48%30.12 "Hg10 mi
11:20 AM79 °FPassing clouds.10 mph42%30.12 "HgN/A
10:50 AM79 °FSunny.10 mph51%30.12 "Hg10 mi
10:20 AM79 °FSunny.8 mph37%30.12 "Hg10 mi
9:50 AM79 °FSunny.5 mph42%30.12 "Hg10 mi
9:20 AM79 °FSunny.2 mph39%30.12 "Hg10 mi
8:50 AM77 °FPassing clouds.3 mph39%30.12 "HgN/A
8:20 AM73 °FPassing clouds.5 mph47%30.09 "HgN/A
7:50 AM70 °FSunny.6 mph57%30.09 "Hg10 mi
7:20 AM66 °FSunny.6 mph60%30.09 "Hg10 mi
6:50 AM63 °FPassing clouds.5 mph68%30.09 "HgN/A
6:20 AM61 °FPassing clouds.3 mph72%30.09 "HgN/A
5:50 AM61 °FClear.7 mph72%30.09 "Hg10 mi
5:20 AM63 °FClear.3 mph68%30.07 "Hg10 mi
4:50 AM61 °FClear.5 mph72%30.07 "Hg10 mi
4:20 AM63 °FClear.6 mph73%30.07 "Hg10 mi
3:50 AM64 °FClear.6 mph68%30.07 "Hg10 mi
3:20 AM64 °FClear.3 mph68%30.07 "Hg10 mi
2:50 AM64 °FClear.5 mph68%30.09 "Hg10 mi
2:20 AM68 °FClear.2 mph60%30.09 "Hg10 mi
1:50 AM66 °FClear.2 mph64%30.09 "Hg10 mi
1:20 AM68 °FClear.3 mph60%30.09 "Hg10 mi
12:50 AM68 °FClear.6 mph60%30.09 "Hg10 mi
12:20 AM70 °FClear.3 mph57%30.09 "Hg10 mi
11:50 PM
Tue, Jun 30
72 °FClear.2 mph57%30.09 "Hg10 mi
11:20 PM72 °FClear.No wind61%30.09 "Hg10 mi
10:50 PM73 °FClear.2 mph57%30.09 "Hg10 mi
10:20 PM73 °FClear.3 mph53%30.09 "Hg10 mi
9:50 PM75 °FClear.2 mph47%30.07 "Hg10 mi
9:20 PM75 °FSunny.3 mph47%30.07 "Hg10 mi
8:50 PM77 °FSunny.2 mph44%30.07 "Hg10 mi
8:20 PM75 °FSunny.3 mph50%30.07 "Hg10 mi
7:50 PM77 °FSunny.6 mph42%30.04 "Hg10 mi
6:50 PM81 °FPassing clouds.8 mph28%30.04 "HgN/A
6:20 PM81 °FPassing clouds.8 mph32%30.04 "HgN/A
5:50 PM81 °FPassing clouds.8 mph34%30.04 "HgN/A
4:50 PM81 °FScattered clouds.10 mph37%30.07 "HgN/A
4:20 PM79 °FScattered clouds.12 mph39%30.07 "HgN/A
3:50 PM81 °FScattered clouds.12 mph37%30.07 "HgN/A
2:50 PM81 °FPassing clouds.13 mph37%30.07 "HgN/A
2:20 PM81 °FPassing clouds.14 mph32%30.07 "HgN/A
Weather by CustomWeather, © 2015

See weather overviewHow to use our weather pages